OpenBCM V1.07b12 (Linux)

Packet Radio Mailbox

DB0FHN

[JN59NK Nuernberg]

 Login: GUEST





  
I0OJJ  > KEPS     15.02.25 06:03l 328 Lines 15588 Bytes #999 (0) @ AMSAT
BID : ORB25046.1
Read: DJ6UX GUEST
Subj: 2Line Orbital Elements 25046.AMSAT
Path: DB0FHN<DB0LHR<OK1TOR<OE2XZR<OE6XPE<DB0ERF<DK0WUE<DK0WUE<VK5RSV<PI8ZTM<
      I0OJJ
Sent: 250215/0345z @:I0OJJ.ITA.EU [Rome] obcm1.08-6-g5b69
From: I0OJJ @ I0OJJ.ITA.EU (Gustavo)
To:   KEPS @ AMSAT
X-Info: This message was generated automatically


QST de W1STR

AMSAT Orbital Elements for Amateur Satellites in TLE Format
From Orbital Analysis Office
New England Sci-Tech STEM Education Center
Natick, MA February 15, 2025
To all radio amateurs


These element sets describe the orbits of various satellites 
in use by the amateur radio community. For details see:
www.amsat.org/keplerian-elements-formats/

A daily update of element sets is available at:
www.amsat.org/tle/daily-bulletin.txt
or without bulletin text:
www.amsat.org/tle/dailytle.txt


AO-07
1 07530U 74089B   25045.51148845 -.00000049  00000-0 -14105-4 0  9995
2 07530 101.9938  48.5494 0012104 343.0317 144.8851 12.53686109299407
UO-11
1 14781U 84021B   25045.49438306  .00002842  00000-0  31012-3 0  9995
2 14781  97.7399  14.2918 0008018   9.9705 350.1670 14.88688276184518
AO-27
1 22825U 93061C   25045.38905770  .00000248  00000-0  11206-3 0  9990
2 22825  98.7540 106.2886 0009510  91.1195 269.1076 14.30728327637246
FO-29
1 24278U 96046B   25045.33775069  .00000016  00000-0  55625-4 0  9998
2 24278  98.5873 314.3334 0348940 281.1706  75.0401 13.53237015407186
NOAA-15
1 25338U 98030A   25045.81439510  .00000308  00000-0  14469-3 0  9996
2 25338  98.5483  73.6418 0009761 341.1387  18.9431 14.26882921392035
GO-32
1 25397U 98043D   25045.48209767  .00000213  00000-0  11250-3 0  9997
2 25397  98.9575  22.2813 0001642 140.5607 219.5690 14.24253093381901
ISS
1 25544U 98067A   25045.69939101  .00009497  00000-0  17352-3 0  9994
2 25544  51.6371 193.6981 0003865 315.5499 169.2707 15.50106485496163
NO-44
1 26931U 01043C   25045.44913463  .00000374  00000-0  17141-3 0  9990
2 26931  67.0500  65.4903 0006012 264.2554  95.7863 14.31617514220628
SO-50
1 27607U 02058C   25045.51631712  .00002622  00000-0  35125-3 0  9990
2 27607  64.5533 195.5479 0042497   3.0691 357.0666 14.80946622192181
CO-55
1 27844U 03031E   25045.01817495  .00000675  00000-0  31395-3 0  9995
2 27844  98.6790  54.7771 0010101 157.0612 203.1020 14.23817668122191
CO-57
1 27848U 03031J   25045.75711010  .00000546  00000-0  26068-3 0  9994
2 27848  98.6819  55.5966 0009718 171.1889 188.9462 14.23179354122088
RS-22
1 27939U 03042A   25045.80903889  .00002250  00000-0  36850-3 0  9994
2 27939  98.3137 212.5991 0011835  18.2994  88.5137 14.71758877143941
NOAA-18
1 28654U 05018A   25045.81305738  .00000349  00000-0  20871-3 0  9997
2 28654  98.8513 126.5545 0015185  96.0104 264.2799 14.13515068 17538
CO-58
1 28895U 05043F   25045.80785091  .00003355  00000-0  56506-3 0  9999
2 28895  98.2296 188.9094 0014167 312.7833  47.2180 14.70157975 30309
CO-65
1 32785U 08021C   25045.53467367  .00010191  00000-0  77716-3 0  9996
2 32785  97.7697  16.1052 0009107 239.5269 120.5056 15.02192188911793
AAUSAT2
1 32788U 08021F   25045.47713822  .00111314  00000-0  21188-2 0  9992
2 32788  97.6063  37.1621 0006751  76.2746 283.9254 15.47786871915363
CO-66
1 32791U 08021J   25045.44164416  .00020232  00000-0  11185-2 0  9996
2 32791  97.7185  23.3598 0004219 167.3712 192.7625 15.13912221913129
RS-30
1 32953U 08025A   25045.79944302  .00000046  00000-0  25894-3 0  9992
2 32953  82.5034 298.5858 0018899 298.1815  61.7355 12.43158737759278
NOAA-19
1 33591U 09005A   25045.80077866  .00000318  00000-0  19354-3 0  9990
2 33591  99.0134 109.7932 0013133 331.3446  28.7003 14.13284671825894
SRMSAT
1 37841U 11058D   25045.58333823  .00000582  00000-0  17253-3 0  9995
2 37841  19.9712 130.4057 0011555 240.0573 247.5786 14.11360663689061
ZACUBE-1
1 39417U 13066B   25045.59271192  .00008668  00000-0  78924-3 0  9993
2 39417  97.7667   3.4691 0047883  76.4807 284.1742 14.94525381607725
Delfi-N3xt
1 39428U 13066N   25045.37329007  .00015436  00000-0  16665-2 0  9994
2 39428  97.8380 324.5217 0090329  20.5848 339.8969 14.85454074601957
GOMX-1
1 39430U 13066Q   25045.85216427  .00003849  00000-0  61147-3 0  9992
2 39430  97.6991 271.5016 0133705 198.9249 160.6961 14.66799187598587
LO-74
1 39440U 13066AA  25045.57683702  .00006617  00000-0  69802-3 0  9998
2 39440  97.8390 351.1539 0063574 197.5548 162.3472 14.88137531604320
AO-73
1 39444U 13066AE  25045.42164988  .00014305  00000-0  11551-2 0  9996
2 39444  97.7502   7.3398 0043449  54.6428 305.8844 14.99194565606310
DTUSAT-2
1 40030U 14033W   25045.42479149  .00013052  00000-0  91345-3 0  9990
2 40030  98.0442  11.9963 0012395  89.9087 270.3558 15.05342363579054
EO-80
1 40032U 14033Y   25045.65086713  .00013800  00000-0  96349-3 0  9998
2 40032  98.0317  12.0411 0010159  39.5060 320.6904 15.05437671579584
XW-2C
1 40906U 15049H   25045.84251474  .02293490  24755-5  11286-2 0  9996
2 40906  97.4340  81.7036 0004023 199.6081 160.5054 16.21029040522348
LILACSAT-2
1 40908U 15049K   25045.83909388  .00016827  00000-0  49913-3 0  9997
2 40908  97.5160  63.6653 0009261 200.1974 159.8904 15.34855477520609
IO-86
1 40931U 15052B   25038.81889873  .00001817  00000-0  15548-3 0  9993
2 40931   6.0001 108.1159 0012838 187.7041 172.2889 14.78568669506492
Horyu-4
1 41340U 16012D   25045.53492541  .00028778  00000-0  97041-3 0  9997
2 41340  30.9987 181.6652 0005949 313.4218  46.5930 15.29510963495116
Lapan A3
1 41603U 16040E   25045.79638739  .00005202  00000-0  18987-3 0  9998
2 41603  97.1394  54.9918 0010084 327.8106  32.2518 15.28501508480249
CAS-2T
1 41847U 16066G   25045.73739543  .00003359  00000-0  48669-3 0  9996
2 41847  98.4317 121.1851 0348546 165.6381 195.5031 14.42925602434456
CAS-4B
1 42759U 17034B   25045.77941127  .00047475  00000-0  90030-3 0  9998
2 42759  43.0105 278.0406 0017304 213.7160 146.2599 15.47415656424723
CAS-4A
1 42761U 17034D   25045.80929140  .00051751  00000-0  96360-3 0  9990
2 42761  43.0144 275.8160 0018682 219.9767 139.9717 15.47880746424741
TechnoSat
1 42829U 17042E   25045.72574787  .00005435  00000-0  43729-3 0  9997
2 42829  97.3889 219.9931 0011918 321.5436  38.4938 15.00312056413498
AO-91
1 43017U 17073E   25045.58028905  .00013840  00000-0  75050-3 0  9992
2 43017  97.5488 279.3450 0181286 197.5212 161.9708 15.01611369391931
S-Net D
1 43186U 18014G   25045.46565083  .00009455  00000-0  58872-3 0  9995
2 43186  97.5739 309.6331 0007556 259.1449 100.8930 15.09778745384993
S-Net B
1 43187U 18014H   25045.66852905  .00009039  00000-0  56313-3 0  9996
2 43187  97.5744 309.7994 0008388 252.6827 107.3485 15.09766908385028
S-Net A
1 43188U 18014J   25045.66522630  .00008911  00000-0  55494-3 0  9993
2 43188  97.5751 309.9318 0008206 253.4409 106.5919 15.09786181385021
S-Net C
1 43189U 18014K   25045.67066748  .00009044  00000-0  56326-3 0  9991
2 43189  97.5767 309.9316 0009959 245.1297 114.8897 15.09764137383578
Ten-Koh
1 43677U 18084G   25045.53356016  .00005412  00000-0  44687-3 0  9997
2 43677  98.0840 213.2318 0010690 290.9717  69.0360 14.99382496342995
PO-101
1 43678U 18084H   25045.75760673  .00004421  00000-0  38636-3 0  9996
2 43678  98.0930 217.6224 0007441 315.6586  44.4038 14.97305049343198
QO-100
1 43700U 18090A   25045.36642105  .00000141  00000-0  00000+0 0  9990
2 43700   0.0127 103.0083 0001331 244.2952 314.9863  1.00274780 23027
MinXSS-2
1 43758U 18099A   25045.17191360  .00021123  00000-0  97656-3 0  9993
2 43758  97.5194 111.1797 0013058 197.5517 162.5268 15.20113275339409
AO-95
1 43770U 18099N   25045.11831887  .00014174  00000-0  78842-3 0  9990
2 43770  97.5095 104.6405 0010542 250.6019 109.4073 15.13727517339067
RANGE-A
1 43773U 18099R   25045.09864837  .00007873  00000-0  52614-3 0  9998
2 43773  97.4656  96.8748 0010967 223.7193 136.3168 15.07198597338818
MOVE-II
1 43780U 18099Y   25045.46221060  .00086156  00000-0  20148-2 0  9999
2 43780  97.4833 115.6735 0004188 203.2767 156.8290 15.41824018339891
SNUSat 2
1 43782U 18099AA  25045.55589293  .00012159  00000-0  71660-3 0  9994
2 43782  97.4784 102.7125 0012708 185.6196 174.4894 15.11662225339101
SnugLite
1 43784U 18099AC  25045.10613236  .00014666  00000-0  80977-3 0  9998
2 43784  97.4593 101.6450 0003706 180.0037 180.1195 15.14024378339147
ITASat 1
1 43786U 18099AE  25045.11711697  .00009965  00000-0  60870-3 0  9997
2 43786  97.4745 102.0996 0014098 242.3093 117.6707 15.10398556339016
EAGLET 1
1 43790U 18099AJ  25045.58199937  .00007130  00000-0  47518-3 0  9996
2 43790  97.4931 102.8290 0011810 219.4255 140.6115 15.07325374338738
ESEO
1 43792U 18099AL  25045.70387758  .00002904  00000-0  22695-3 0  9995
2 43792  97.4597  97.6852 0010605 182.7149 177.4020 15.01796529338571
CSIM
1 43793U 18099AM  25045.77310516  .00081572  00000-0  19001-2 0  9995
2 43793  97.5006 117.9701 0007370 181.3096 178.8133 15.41944105339781
JO-97
1 43803U 18099AX  25045.56498019  .00017501  00000-0  89749-3 0  9997
2 43803  97.4846 105.8890 0008225 178.8917 181.2336 15.16584580339313
Suomi 100
1 43804U 18099AY  25045.61479527  .00015048  00000-0  81167-3 0  9997
2 43804  97.4913 105.5081 0013374 182.2145 177.9030 15.14783266339279
ISAT
1 43879U 18111D   25045.47914715  .00028019  00000-0  11861-2 0  9996
2 43879  97.6043 317.8340 0007882 233.8454 126.2053 15.23118150334110
UWE-4
1 43880U 18111E   25045.73117359  .00021099  00000-0  96597-3 0  9997
2 43880  97.5977 317.2577 0011148 249.1650 110.8391 15.20472576334140
Sparrow
1 43881U 18111F   25045.47601923  .00029696  00000-0  12245-2 0  9992
2 43881  97.6166 320.3112 0005475 289.1894  70.8750 15.24007970336212
Prox-1
1 44339U 19036A   25045.79586866  .00018213  00000-0  25446-2 0  9991
2 44339  23.9980  93.7645 0007850 197.4903 162.5323 14.76044780301101
SONATE
1 44400U 19038Q   25045.46184075  .00082226  00000-0  10589-2 0  9999
2 44400  97.7094  60.2978 0007426 326.5705  33.5081 15.58738038311473
